Regional Weather Roundup
Issued by NWS New Orleans/Baton Rouge, LA

Home | Current Version | Previous Version | Graphics & Text | Print | Product List | Glossary On
Versions: 1 2 3 4 5 6 7 8 9 10 11 12 13 14 15 16 17 18 19 20 21 22 23 24 25 26 27 28 29 30 31 32 33 34 35 36 37 38 39 40 41 42 43 44 45 46 47 48 49 50
018
ASUS44 KLIX 291401
RWRLIX
NEW ORLEANS REGIONAL WEATHER ROUNDUP
NATIONAL WEATHER SERVICE NEW ORLEANS LA
900 AM CDT FRI AUG 29 2014

NOTE: "FAIR" INDICATES FEW OR NO CLOUDS BELOW 12,000 FEET WITH NO
      SIGNIFICANT WEATHER AND/OR OBSTRUCTIONS TO VISIBILITY.
      SKY/WX - SKY CONDITION AND SIGNIFICANT WEATHER.
      TMP - AIR TEMPERATURE.     DP    - DEWPOINT TEMPERATURE.
      RH  - RELATIVE HUMIDITY.   PRES  - PRESSURE.
      HI  - HEAT INDEX.          WCI   - WIND CHILL INDEX.

*  THESE STATIONS ARE NOT NWS OR FAA STATIONS AND ARE NOT UNDER
   NWS QUALITY CONTROL.

LAZ038-040-048-061>063-065>067-069-291500-
SOUTHEAST LOUISIANA

CITY           SKY/WX    TMP DP  RH WIND       PRES   REMARKS
N.O. AUDUBON     N/A    N/A N/A N/A MISG        N/A
N.O. INTL ARPT PTSUNNY   86  75  69 E7        29.94R HX  95
N.O. LAKEFRONT MOSUNNY   83  76  79 E9        29.95R
N.O. DOWNTOWN*   N/A     84  73  70 CALM      29.95R
SLIDELL        SUNNY     83  74  74 VRB3      29.95R
BATON ROUGE    SUNNY     82  74  76 NE3       29.95R
BOOTHVILLE     MOSUNNY   86  78  77 E10       29.95R HX  98
BELLE CHASSE   MOSUNNY   85  75  72 E8        29.94R
BOGALUSA*        N/A     82  73  73 E3        29.97S
GALLIANO*      NOT AVBL
NEW ROADS*       N/A     81  76  83 E5        29.95R
GONZALES*        N/A     82  78  85 E3        29.94R
HAMMOND*       NOT AVBL
HOUMA*         MOSUNNY   81  75  83 NE6       29.93R
PORT FOURCHON* MOSUNNY   86  77  74 E9        29.95R HX  97

$$

MSZ070-080>082-291500-
SOUTHERN MISSISSIPPI

CITY           SKY/WX    TMP DP  RH WIND       PRES   REMARKS
MCCOMB         SUNNY     80  72  76 E5        29.97F
GULFPORT       MOSUNNY   83  74  74 E9        29.96R
BILOXI         MOSUNNY   84  74  72 E10       29.97R
PASCAGOULA     MOSUNNY   82  75  79 E6        29.98R
STENNIS ARPT*  SUNNY    N/A N/A N/A E6        29.96R

$$

COASTAL OBSERVATIONS
LAKE AND NEARSHORE STATIONS

STATION/POSITION TIME  TEMP    WIND        PRES    WAVE
                       AIR SEA DIR/SP/G            HT/PER
                 (UTC) (F)     (DEG/KT/KT) (MB)    (FT/S)
PASCAGOULA       1300   83      60/ 11/ 15 1014.2
WAVELAND YACHT   1300   80      70/ 10/ 11 1013.5
GRAND ISLE       1300   85 84  100/  7/ 11 1013.9
SOUTHWEST PASS   1300   87 88   80/ 15/ 16 1013.7
NEW CANAL        1300   83 83   70/ 10/ 11 1013.8
SHELL BEACH      1300   84 81   80/  9/ 11 1013.6

OFFSHORE STATIONS

STATION/POSITION TIME  TEMP    WIND        PRES    WAVE
                       AIR SEA DIR/SP/G            HT/PER
                 (UTC) (F)     (DEG/KT/KT) (MB)    (FT/S)
64 S DAUPHIN ISL 1400   84 85  100/ 16/ 17 1014.5

$$




USA.gov is the U.S. government's official web portal to all federal, state and local government web resources and services.